TimeCST,TemperatureF,Dew PointF,Humidity,Sea Level PressureIn,VisibilityMPH,Wind Direction,Wind SpeedMPH,Gust SpeedMPH,PrecipitationIn,Events,Conditions,WindDirDegrees,DateUTC
12:52 AM,30.9,27.0,85,30.22,10.0,SE,5.8,-,N/A,,Clear,130,2012-12-06 06:52:00
1:52 AM,32.0,28.0,85,30.21,10.0,ESE,6.9,-,N/A,,Clear,120,2012-12-06 07:52:00
2:52 AM,32.0,28.0,85,30.19,10.0,SE,9.2,-,N/A,,Partly Cloudy,140,2012-12-06 08:52:00
3:52 AM,32.0,28.0,85,30.17,10.0,SE,10.4,-,N/A,,Clear,140,2012-12-06 09:52:00
4:52 AM,32.0,28.0,85,30.17,10.0,SSE,9.2,-,N/A,,Clear,150,2012-12-06 10:52:00
5:52 AM,32.0,28.9,88,30.16,10.0,SE,10.4,-,N/A,,Clear,140,2012-12-06 11:52:00
6:52 AM,33.1,28.9,85,30.15,10.0,SSE,8.1,-,N/A,,Mostly Cloudy,150,2012-12-06 12:52:00
7:52 AM,33.1,28.9,85,30.12,9.0,SSE,9.2,-,N/A,,Overcast,150,2012-12-06 13:52:00
8:52 AM,34.0,30.0,85,30.12,9.0,SSE,10.4,-,N/A,,Scattered Clouds,160,2012-12-06 14:52:00
9:52 AM,37.0,30.9,79,30.11,9.0,SSE,15.0,-,N/A,,Partly Cloudy,160,2012-12-06 15:52:00
10:52 AM,39.0,32.0,76,30.08,9.0,South,11.5,-,N/A,,Clear,170,2012-12-06 16:52:00
11:52 AM,41.0,33.1,73,30.03,9.0,South,12.7,-,N/A,,Overcast,170,2012-12-06 17:52:00
12:52 PM,43.0,34.0,71,29.99,10.0,South,11.5,-,N/A,,Overcast,170,2012-12-06 18:52:00
1:52 PM,44.1,34.0,68,29.96,10.0,South,11.5,-,N/A,,Clear,170,2012-12-06 19:52:00
2:52 PM,44.1,35.1,71,29.97,10.0,South,6.9,-,N/A,,Scattered Clouds,170,2012-12-06 20:52:00
3:52 PM,43.0,35.1,74,29.96,10.0,SSE,8.1,-,N/A,,Overcast,150,2012-12-06 21:52:00
4:52 PM,43.0,36.0,76,29.94,10.0,SSE,12.7,-,N/A,,Overcast,150,2012-12-06 22:52:00
5:52 PM,44.1,37.9,79,29.94,10.0,South,9.2,-,N/A,,Overcast,170,2012-12-06 23:52:00
6:52 PM,44.1,39.0,82,29.93,10.0,South,10.4,-,N/A,,Overcast,180,2012-12-07 00:52:00
7:52 PM,44.1,39.0,82,29.92,10.0,South,9.2,-,N/A,,Overcast,170,2012-12-07 01:52:00
8:29 PM,44.6,39.2,81,29.93,10.0,West,5.8,-,N/A,,Overcast,280,2012-12-07 02:29:00
8:52 PM,44.1,39.0,82,29.95,10.0,SW,4.6,-,N/A,,Overcast,220,2012-12-07 02:52:00
9:52 PM,45.0,39.0,80,29.95,10.0,SSW,4.6,-,N/A,,Overcast,210,2012-12-07 03:52:00
10:26 PM,44.6,39.2,81,29.93,10.0,SSW,4.6,-,N/A,,Overcast,200,2012-12-07 04:26:00
10:52 PM,44.1,39.0,82,29.94,9.0,South,5.8,-,N/A,,Overcast,190,2012-12-07 04:52:00
11:39 PM,44.6,39.2,81,29.93,9.0,SSW,6.9,-,0.00,,Overcast,200,2012-12-07 05:39:00
11:52 PM,44.1,39.9,85,29.94,9.0,SSW,5.8,-,0.00,,Overcast,200,2012-12-07 05:52:00